Simultaneous Nadir Overpasses (SNOs) Predictions

Prediction of SNOs between NOAA-19 and TERRA Satellite Orbit:

Table of predicted SNOs for the next 14.0 days since TLE Epoch: 2/8/2014
Index Date (NOAA-19) Time (NOAA-19) Lat,Lon (NOAA-19) SZA (NOAA-19 ) Date (TERRA) Time (TERRA) Lat,Lon (TERRA) SZA (TERRA ) Distance(km) Time Diff (sec)
1 02/08/2014 21:08:53 -70.33, 43.34 94.95 02/08/2014 21:10:05 -70.30, 43.52 94.99 7.89 72
2 02/08/2014 21:59:56 70.10,-149.06 84.80 02/08/2014 21:59:34 70.09,-149.13 84.80 2.51 22
3 02/11/2014 01:53:07 -70.91, -28.61 95.06 02/11/2014 01:54:16 -70.75, -26.88 95.26 65.49 69
4 02/11/2014 02:43:59 70.13, 139.89 84.13 02/11/2014 02:43:52 70.16, 139.89 84.16 3.44 7
5 02/11/2014 03:34:42 -69.41, -51.74 96.63 02/11/2014 03:33:33 -69.45, -53.47 96.56 67.71 69
6 02/13/2014 07:28:02 70.17, 68.84 83.44 02/13/2014 07:28:11 70.16, 68.80 83.42 2.28 9
7 02/13/2014 08:18:55 -69.95,-123.54 96.81 02/13/2014 08:17:42 -69.99,-123.80 96.76 11.17 73
8 02/15/2014 12:12:05 70.23, -2.23 82.74 02/15/2014 12:12:28 70.24, -2.16 82.76 3.42 23
9 02/15/2014 13:03:00 -70.07, 165.27 97.43 02/15/2014 13:01:59 -70.08, 165.25 97.42 1.40 61
10 02/17/2014 16:56:07 70.23, -73.23 81.99 02/17/2014 16:56:46 70.25, -73.22 82.00 2.32 39
11 02/17/2014 17:47:03 -70.10, 94.24 98.16 02/17/2014 17:46:17 -70.09, 94.18 98.17 2.14 46
12 02/19/2014 21:40:09 70.25,-144.24 81.22 02/19/2014 21:41:04 70.24,-144.31 81.21 2.81 55
13 02/19/2014 22:31:06 -70.14, 23.19 98.91 02/19/2014 22:30:34 -70.14, 23.17 98.91 0.65 32
14 02/22/2014 02:24:12 70.32, 144.65 80.51 02/22/2014 02:25:20 70.32, 144.73 80.50 2.74 68




NCC Satellite Simultaneous Nadir Overpasses (SNOs) Prediction Service
